Date,TemperatureHighF,TemperatureAvgF,TemperatureLowF,DewpointHighF,DewpointAvgF,DewpointLowF,HumidityHigh,HumidityAvg,HumidityLow,PressureMaxIn,PressureMinIn,WindSpeedMaxMPH,WindSpeedAvgMPH,GustSpeedMaxMPH,PrecipitationSumIn
2013-1-1,10,0,-12,7,-4,-16,90,83,70,30.66,30.23,17,2,20,0.00
2013-1-2,18,15,8,17,13,5,93,92,88,30.23,30.08,13,2,13,0.00
2013-1-3,18,13,4,15,8,2,99,83,66,30.33,29.92,31,6,31,0.00
2013-1-4,22,18,12,20,14,10,92,86,83,30.26,29.89,20,5,25,0.00
2013-1-5,26,18,5,22,16,2,93,89,80,30.35,29.99,12,2,14,0.00
2013-1-6,20,16,12,16,12,8,93,84,67,30.34,29.99,20,3,20,0.00
2013-1-7,32,25,18,25,20,14,94,82,74,30.04,29.53,24,7,31,0.00
2013-1-8,32,28,23,28,23,19,94,83,72,29.99,29.51,17,2,19,0.02
2013-1-9,28,24,21,26,21,17,93,87,83,30.46,29.51,28,7,29,0.00
2013-1-10,40,31,20,26,20,15,91,66,41,30.41,29.62,25,6,25,0.01
2013-1-11,35,33,31,33,32,25,97,95,73,29.63,29.17,13,2,17,0.21
2013-1-12,36,19,4,35,17,0,97,88,78,30.19,29.02,21,5,26,0.03
2013-1-13,4,1,-2,1,-3,-5,87,85,83,30.51,30.17,17,4,17,0.00
2013-1-14,2,-2,-4,-2,-5,-8,86,83,76,30.73,30.50,15,3,15,0.00
2013-1-15,19,11,2,10,4,-2,86,75,57,30.62,29.68,16,4,22,0.00
2013-1-16,20,9,-13,18,3,-17,93,77,57,30.56,29.43,25,7,25,0.02
2013-1-17,-2,-11,-23,-11,-17,-28,92,73,60,30.95,30.56,20,3,21,0.00
2013-1-18,14,2,-21,10,-1,-26,88,84,75,30.87,29.95,10,1,12,0.08
2013-1-19,24,8,-10,22,5,-14,94,88,82,30.32,29.52,23,6,26,0.10
2013-1-20,-4,-12,-17,-8,-16,-21,94,81,80,30.81,30.32,19,4,20,0.00
2013-1-21,-14,-21,-25,-19,-26,-30,92,78,76,30.93,30.61,17,4,20,0.00
2013-1-22,-11,-18,-26,-15,-22,-32,81,79,76,31.03,30.74,14,2,16,0.00
2013-1-23,-6,-12,-20,-8,-16,-25,92,81,78,31.25,30.59,20,4,20,0.00
2013-1-24,5,-12,-35,2,-16,-41,86,79,73,31.54,30.52,15,2,15,0.00
2013-1-25,9,6,1,5,2,-2,88,86,81,30.57,30.16,15,3,15,0.06
2013-1-26,18,5,-16,15,1,-21,91,86,79,30.85,30.32,17,2,21,0.00
2013-1-27,28,21,12,24,17,9,92,87,78,30.35,29.88,14,2,17,0.00
2013-1-28,30,27,26,28,26,24,96,94,91,29.88,29.67,16,2,16,0.00
2013-1-29,29,26,19,28,24,16,96,93,87,29.71,29.41,20,3,20,0.05
2013-1-30,19,7,-1,16,4,-5,93,86,81,29.90,29.64,22,7,22,0.00
2013-1-31,0,-4,-11,-4,-8,-15,85,81,75,30.50,29.89,22,7,22,0.00